| time (UTC) | temp F | wind direction | speed MPH | gust MPH | rain 1hr in | rain 24hr in | rain mn in | humidity % | barometer mb |
| 20260906013057 | 57 | 85 | 0.0 | 0.0 | 0.00 | 0.20 | 0.20 | 100 | 1019.4 |
| 20260906011557 | 57 | 85 | 0.0 | 0.0 | 0.00 | 0.20 | 0.20 | 100 | 1019.4 |
| 20260906010137 | 57 | 85 | 0.0 | 0.0 | 0.00 | 0.20 | 0.20 | 100 | 1019.3 |
| 20260906004614 | 57 | 85 | 0.0 | 0.0 | 0.00 | 0.20 | 0.20 | 100 | 1019.2 |
| 20260906003057 | 57 | 85 | 0.0 | 0.0 | 0.00 | 0.20 | 0.20 | 100 | 1019.1 |
| 20260906001603 | 57 | 85 | 0.0 | 0.0 | 0.00 | 0.20 | 0.20 | 100 | 1019.3 |
| 20260906000057 | 57 | 85 | 0.0 | 0.0 | 0.01 | 0.20 | 0.20 | 100 | 1019.2 |
| 20260905234557 | 57 | 85 | 0.0 | 1.0 | 0.01 | 0.20 | 0.20 | 100 | 1018.9 |
| 20260905233057 | 57 | 132 | 1.0 | 3.0 | 0.01 | 0.20 | 0.20 | 100 | 1018.6 |
| 20260905231557 | 57 | 210 | 1.0 | 3.0 | 0.01 | 0.20 | 0.20 | 100 | 1018.5 |
| 20260905230056 | 57 | 210 | 0.0 | 2.0 | 0.01 | 0.19 | 0.19 | 100 | 1018.0 |
| 20260905224557 | 57 | 216 | 0.0 | 2.0 | 0.01 | 0.20 | 0.19 | 100 | 1018.4 |
| 20260905223057 | 57 | 244 | 2.0 | 4.0 | 0.01 | 0.20 | 0.19 | 100 | 1018.2 |
| 20260905221600 | 57 | 81 | 0.0 | 3.0 | 0.01 | 0.20 | 0.19 | 100 | 1017.2 |
| 20260905220059 | 57 | 81 | 1.0 | 2.0 | 0.00 | 0.19 | 0.18 | 100 | 1017.4 |
| 20260905214556 | 57 | 81 | 0.0 | 2.0 | 0.01 | 0.19 | 0.18 | 100 | 1017.7 |
| 20260905213057 | 57 | 81 | 0.0 | 3.0 | 0.01 | 0.19 | 0.18 | 100 | 1017.8 |
| 20260905211604 | 57 | 80 | 0.0 | 0.0 | 0.01 | 0.19 | 0.18 | 100 | 1017.1 |
| 20260905210115 | 57 | 80 | 0.0 | 2.0 | 0.01 | 0.19 | 0.18 | 100 | 1016.8 |
| 20260905204600 | 57 | 80 | 1.0 | 3.0 | 0.00 | 0.18 | 0.17 | 100 | 1016.7 |
| 20260905203057 | 58 | 38 | 0.0 | 3.0 | 0.00 | 0.18 | 0.17 | 100 | 1016.7 |
| 20260905201557 | 58 | 35 | 0.0 | 1.0 | 0.00 | 0.18 | 0.17 | 100 | 1016.8 |
| 20260905200118 | 58 | 35 | 0.0 | 2.0 | 0.00 | 0.18 | 0.17 | 100 | 1016.8 |
| 20260905194556 | 58 | 35 | 0.0 | 2.0 | 0.00 | 0.18 | 0.17 | 100 | 1016.4 |
| 20260905193056 | 58 | 38 | 2.0 | 4.0 | 0.00 | 0.18 | 0.17 | 100 | 1015.9 |
| 20260905191556 | 58 | 54 | 0.0 | 4.0 | 0.00 | 0.18 | 0.17 | 100 | 1015.8 |
| 20260905190058 | 58 | 23 | 3.0 | 5.0 | 0.00 | 0.18 | 0.17 | 100 | 1016.2 |
| 20260905184606 | 58 | 44 | 1.0 | 4.0 | 0.00 | 0.19 | 0.17 | 100 | 1015.9 |
| 20260905183056 | 58 | 49 | 0.0 | 3.0 | 0.00 | 0.19 | 0.17 | 100 | 1016.4 |
| 20260905181557 | 58 | 46 | 1.0 | 4.0 | 0.00 | 0.19 | 0.17 | 100 | 1015.9 |
| 20260905180056 | 58 | 28 | 1.0 | 4.0 | 0.00 | 0.19 | 0.17 | 100 | 1016.0 |
| 20260905180001 | 58 | 28 | 1.0 | 4.0 | 0.00 | 0.19 | 0.17 | 100 | 1016.0 |
| 20260905174603 | 58 | 20 | 2.0 | 4.0 | 0.00 | 0.19 | 0.17 | 100 | 1015.8 |
| 20260905173056 | 58 | 116 | 2.0 | 3.0 | 0.00 | 0.19 | 0.17 | 100 | 1016.0 |
| 20260905171557 | 58 | 266 | 0.0 | 3.0 | 0.00 | 0.19 | 0.17 | 100 | 1016.2 |
| 20260905170057 | 58 | 68 | 1.0 | 3.0 | 0.00 | 0.19 | 0.17 | 100 | 1016.5 |
| 20260905164556 | 58 | 68 | 1.0 | 4.0 | 0.00 | 0.19 | 0.17 | 100 | 1016.4 |
| 20260905163057 | 58 | 20 | 1.0 | 5.0 | 0.00 | 0.19 | 0.17 | 100 | 1016.5 |
| 20260905161556 | 58 | 79 | 3.0 | 5.0 | 0.00 | 0.19 | 0.17 | 100 | 1016.3 |
| 20260905160057 | 58 | 20 | 3.0 | 7.0 | 0.00 | 0.19 | 0.17 | 100 | 1016.6 |
| 20260905154602 | 59 | 47 | 2.0 | 5.0 | 0.00 | 0.19 | 0.17 | 100 | 1016.3 |
| 20260905153056 | 59 | 40 | 3.0 | 5.0 | 0.00 | 0.19 | 0.17 | 100 | 1016.8 |
| 20260905151613 | 59 | 30 | 2.0 | 5.0 | 0.01 | 0.19 | 0.17 | 100 | 1016.6 |
| 20260905150057 | 58 | 35 | 1.0 | 4.0 | 0.03 | 0.19 | 0.17 | 100 | 1017.1 |
| 20260905150002 | 58 | 35 | 1.0 | 4.0 | 0.03 | 0.19 | 0.17 | 100 | 1017.1 |
| 20260905144556 | 58 | 8 | 2.0 | 4.0 | 0.07 | 0.19 | 0.17 | 100 | 1016.7 |
| 20260905143056 | 57 | 101 | 1.0 | 3.0 | 0.07 | 0.19 | 0.17 | 100 | 1017.2 |
| 20260905141556 | 57 | 288 | 1.0 | 3.0 | 0.06 | 0.18 | 0.16 | 100 | 1018.2 |
| 20260905140056 | 57 | 293 | 0.0 | 3.0 | 0.06 | 0.16 | 0.14 | 100 | 1017.7 |
| 20260905134556 | 57 | 75 | 0.0 | 0.0 | 0.02 | 0.12 | 0.10 | 100 | 1017.8 |
| 20260905133056 | 57 | 75 | 0.0 | 0.0 | 0.02 | 0.12 | 0.10 | 100 | 1017.3 |
| 20260905131604 | 57 | 73 | 0.0 | 0.0 | 0.03 | 0.12 | 0.10 | 100 | 1017.7 |
| 20260905130057 | 56 | 329 | 0.0 | 0.0 | 0.01 | 0.10 | 0.08 | 100 | 1017.7 |
| 20260905124557 | 56 | 359 | 0.0 | 0.0 | 0.01 | 0.10 | 0.08 | 100 | 1017.3 |
| 20260905123110 | 56 | 262 | 0.0 | 0.0 | 0.01 | 0.10 | 0.08 | 100 | 1017.8 |
| 20260905121556 | 56 | 259 | 0.0 | 0.0 | 0.00 | 0.09 | 0.07 | 100 | 1017.7 |
| 20260905120056 | 56 | 44 | 0.0 | 0.0 | 0.00 | 0.09 | 0.07 | 100 | 1017.4 |
| 20260905120002 | 56 | 44 | 0.0 | 0.0 | 0.00 | 0.09 | 0.07 | 100 | 1017.4 |
| 20260905114556 | 56 | 44 | 0.0 | 0.0 | 0.00 | 0.09 | 0.07 | 100 | 1017.1 |
| 20260905113100 | 56 | 281 | 0.0 | 0.0 | 0.00 | 0.09 | 0.07 | 100 | 1017.0 |
| 20260905111600 | 55 | 278 | 0.0 | 0.0 | 0.00 | 0.09 | 0.07 | 100 | 1016.8 |
| 20260905110056 | 55 | 189 | 0.0 | 0.0 | 0.00 | 0.09 | 0.07 | 100 | 1016.2 |
| 20260905104557 | 55 | 281 | 0.0 | 0.0 | 0.01 | 0.09 | 0.07 | 100 | 1016.6 |
| 20260905103103 | 55 | 311 | 0.0 | 0.0 | 0.03 | 0.09 | 0.07 | 100 | 1016.2 |
| 20260905101556 | 55 | 316 | 0.0 | 0.0 | 0.03 | 0.09 | 0.07 | 100 | 1016.5 |
| 20260905100105 | 55 | 134 | 0.0 | 0.0 | 0.03 | 0.09 | 0.07 | 100 | 1015.9 |
| 20260905094556 | 55 | 231 | 0.0 | 0.0 | 0.02 | 0.08 | 0.06 | 100 | 1016.4 |
| 20260905093058 | 55 | 227 | 0.0 | 0.0 | 0.00 | 0.06 | 0.04 | 100 | 1016.0 |
| 20260905091557 | 55 | 229 | 0.0 | 0.0 | 0.00 | 0.06 | 0.04 | 100 | 1015.7 |
| 20260905090056 | 55 | 229 | 0.0 | 0.0 | 0.00 | 0.06 | 0.04 | 100 | 1016.0 |
| 20260905084608 | 55 | 229 | 0.0 | 0.0 | 0.00 | 0.06 | 0.04 | 100 | 1015.3 |
| 20260905083057 | 55 | 41 | 0.0 | 0.0 | 0.00 | 0.06 | 0.04 | 100 | 1015.1 |
| 20260905081556 | 56 | 307 | 0.0 | 0.0 | 0.02 | 0.06 | 0.04 | 100 | 1014.4 |
| 20260905080135 | 56 | 257 | 0.0 | 3.0 | 0.02 | 0.06 | 0.04 | 100 | 1014.9 |
| 20260905074556 | 56 | 185 | 0.0 | 2.0 | 0.02 | 0.06 | 0.04 | 100 | 1014.8 |
| 20260905073056 | 56 | 184 | 0.0 | 2.0 | 0.02 | 0.06 | 0.04 | 100 | 1014.5 |
| 20260905071603 | 56 | 251 | 2.0 | 4.0 | 0.00 | 0.04 | 0.02 | 100 | 1015.4 |
| 20260905070057 | 56 | 227 | 0.0 | 0.0 | 0.00 | 0.04 | 0.02 | 100 | 1014.3 |
| 20260905064601 | 56 | 230 | 0.0 | 0.0 | 0.00 | 0.04 | 0.02 | 100 | 1015.1 |
| 20260905063056 | 57 | 105 | 0.0 | 0.0 | 0.00 | 0.04 | 0.02 | 100 | 1015.1 |
| 20260905061559 | 57 | 105 | 0.0 | 0.0 | 0.00 | 0.04 | 0.02 | 100 | 1015.4 |
| 20260905054603 | 57 | 105 | 0.0 | 0.0 | 0.01 | 0.04 | 0.02 | 100 | 1015.2 |
| 20260905053109 | 57 | 100 | 0.0 | 0.0 | 0.01 | 0.04 | 0.02 | 100 | 1015.3 |
| 20260905051558 | 57 | 100 | 0.0 | 2.0 | 0.01 | 0.04 | 0.02 | 100 | 1015.5 |
| 20260905050058 | 58 | 101 | 0.0 | 5.0 | 0.01 | 0.04 | 0.02 | 100 | 1015.7 |
| 20260905044604 | 58 | 257 | 1.0 | 3.0 | 0.00 | 0.03 | 0.01 | 100 | 1016.0 |
| 20260905043109 | 58 | 169 | 1.0 | 2.0 | 0.00 | 0.03 | 0.01 | 100 | 1015.6 |
| 20260905041557 | 58 | 169 | 0.0 | 0.0 | 0.00 | 0.03 | 0.01 | 100 | 1015.7 |
| 20260905040057 | 59 | 169 | 0.0 | 0.0 | 0.01 | 0.03 | 0.01 | 100 | 1016.0 |
| 20260905034601 | 59 | 169 | 0.0 | 0.0 | 0.01 | 0.03 | 0.01 | 100 | 1016.1 |
| 20260905033057 | 59 | 171 | 0.0 | 3.0 | 0.01 | 0.03 | 0.01 | 100 | 1016.4 |
| 20260905031557 | 59 | 105 | 1.0 | 3.0 | 0.01 | 0.03 | 0.01 | 100 | 1016.1 |
| 20260905030100 | 60 | 141 | 0.0 | 2.0 | 0.00 | 0.02 | 0.00 | 100 | 1016.3 |
| 20260905030003 | 60 | 141 | 0.0 | 2.0 | 0.00 | 0.02 | 0.00 | 100 | 1016.3 |
| 20260905024558 | 60 | 271 | 0.0 | 3.0 | 0.00 | 0.02 | 0.02 | 100 | 1016.4 |
| 20260905023058 | 60 | 89 | 1.0 | 3.0 | 0.00 | 0.02 | 0.02 | 100 | 1016.0 |
| 20260905021558 | 60 | 136 | 1.0 | 3.0 | 0.00 | 0.02 | 0.02 | 100 | 1015.9 |
| 20260905020057 | 60 | 167 | 1.0 | 2.0 | 0.00 | 0.02 | 0.02 | 100 | 1016.7 |
| 20260905014557 | 60 | 168 | 0.0 | 2.0 | 0.00 | 0.02 | 0.02 | 100 | 1016.7 |